K3RTA-2 Weather Reports


Display with metric or nautical units.
time (UTC)temp
F
wind
direction
speed
MPH
gust
MPH
rain 1hr
in
rain 24hr
in
rain mn
in
humidity
%
barometer
mb
20260901102504 72 148 0.0 0.0 0.00 0.00 0.00 98 1016.9
20260901102004 71 148 0.0 0.0 0.00 0.00 0.00 98 1016.8
20260901101503 71 158 0.0 0.0 0.00 0.00 0.00 98 1016.9
20260901101004 71 158 0.0 1.0 0.00 0.00 0.00 98 1016.9
20260901100504 71 158 0.0 1.0 0.00 0.00 0.00 98 1016.9
20260901095504 71 148 0.0 0.0 0.00 0.00 0.00 98 1016.8
20260901095004 71 148 0.0 0.0 0.00 0.00 0.00 98 1016.7
20260901094504 71 148 0.0 0.0 0.00 0.00 0.00 98 1016.7
20260901094004 71 148 0.0 0.0 0.00 0.00 0.00 98 1016.7
20260901093504 71 148 0.0 0.0 0.00 0.00 0.00 98 1016.8
20260901092503 71 148 0.0 0.0 0.00 0.00 0.00 98 1016.9
20260901092005 71 148 0.0 0.0 0.00 0.00 0.00 98 1016.8
20260901091004 71 148 0.0 0.0 0.00 0.00 0.00 98 1016.7
20260901090505 71 148 0.0 0.0 0.00 0.00 0.00 98 1016.7
20260901090004 71 148 0.0 0.0 0.00 0.00 0.00 98 1016.8
20260901085504 71 148 0.0 0.0 0.00 0.00 0.00 98 1016.8
20260901084505 71 148 0.0 0.0 0.00 0.00 0.00 98 1016.9
20260901084003 71 148 0.0 0.0 0.00 0.00 0.00 98 1017.0
20260901083503 71 148 0.0 0.0 0.00 0.00 0.00 98 1017.0
20260901083004 71 148 0.0 0.0 0.00 0.00 0.00 98 1016.8
20260901082003 72 148 0.0 0.0 0.00 0.00 0.00 98 1016.8
20260901081004 72 148 0.0 0.0 0.00 0.00 0.00 98 1016.9
20260901080504 72 148 0.0 0.0 0.00 0.00 0.00 98 1016.9
20260901080004 72 148 0.0 0.0 0.00 0.00 0.00 98 1016.9
20260901075504 72 148 0.0 0.0 0.00 0.00 0.00 98 1017.0
20260901075004 72 148 0.0 0.0 0.00 0.00 0.00 98 1017.0
20260901074004 72 148 0.0 0.0 0.00 0.00 0.00 98 1017.1
20260901073504 72 148 0.0 0.0 0.00 0.00 0.00 97 1017.0
20260901073004 72 148 0.0 0.0 0.00 0.00 0.00 97 1017.1
20260901072504 72 148 0.0 0.0 0.00 0.00 0.00 97 1017.0
20260901071004 72 148 0.0 0.0 0.00 0.00 0.00 97 1017.1
20260901070504 72 148 0.0 0.0 0.00 0.00 0.00 97 1017.0
20260901065504 72 148 0.0 0.0 0.00 0.00 0.00 97 1017.1
20260901065004 72 148 0.0 0.0 0.00 0.00 0.00 97 1017.1
20260901064503 72 148 0.0 0.0 0.00 0.00 0.00 97 1017.2
20260901064004 72 148 0.0 0.0 0.00 0.00 0.00 97 1017.3
20260901063504 72 148 0.0 0.0 0.00 0.00 0.00 97 1017.3
20260901062504 72 148 0.0 0.0 0.00 0.00 0.00 97 1017.4
20260901062004 72 148 0.0 0.0 0.00 0.00 0.00 97 1017.5
20260901061504 72 148 0.0 0.0 0.00 0.00 0.00 97 1017.5
20260901061005 72 148 0.0 0.0 0.00 0.00 0.00 97 1017.5
20260901060504 72 148 0.0 0.0 0.00 0.00 0.00 97 1017.7
20260901060004 72 148 0.0 0.0 0.00 0.00 0.00 97 1017.7
20260901055004 73 148 0.0 0.0 0.00 0.00 0.00 97 1017.8
20260901054004 73 148 0.0 0.0 0.00 0.00 0.00 97 1018.1
20260901053503 73 148 0.0 0.0 0.00 0.00 0.00 97 1018.1
20260901053004 73 148 0.0 0.0 0.00 0.00 0.00 97 1018.1
20260901052504 73 148 0.0 0.0 0.00 0.00 0.00 97 1018.2
20260901052005 73 148 0.0 0.0 0.00 0.00 0.00 97 1018.2
20260901051504 73 148 0.0 0.0 0.00 0.00 0.00 97 1018.3
20260901051004 73 148 0.0 0.0 0.00 0.00 0.00 97 1018.4
20260901050505 73 148 0.0 0.0 0.00 0.00 0.00 97 1018.4
20260901045504 73 148 0.0 0.0 0.00 0.00 0.00 97 1018.4
20260901045004 73 148 0.0 0.0 0.00 0.00 0.00 97 1018.4
20260901044506 73 148 0.0 0.0 0.00 0.00 0.00 97 1018.3
20260901044004 73 148 0.0 0.0 0.00 0.00 0.00 97 1018.3
20260901043505 73 148 0.0 0.0 0.00 0.00 0.00 97 1018.2
20260901043004 73 148 0.0 0.0 0.00 0.00 0.00 97 1018.1
20260901042505 73 148 0.0 0.0 0.00 0.00 0.00 97 1018.1
20260901042004 73 148 0.0 0.0 0.00 0.00 0.00 97 1018.2
20260901041504 73 148 0.0 0.0 0.00 0.00 0.00 97 1018.2
20260901040504 73 148 0.0 0.0 0.00 0.00 0.00 97 1018.2
20260901035504 73 148 0.0 0.0 0.00 0.00 0.00 97 1018.1
20260901035004 73 148 0.0 0.0 0.00 0.00 0.00 97 1018.1
20260901034004 73 148 0.0 0.0 0.00 0.00 0.00 97 1018.0
20260901033504 73 148 0.0 0.0 0.00 0.00 0.00 97 1017.9
20260901033003 73 147 0.0 0.0 0.00 0.00 0.00 97 1018.0
20260901032504 73 147 0.0 0.0 0.00 0.00 0.00 97 1018.0
20260901032004 73 155 0.0 0.0 0.00 0.00 0.00 97 1018.0
20260901031004 73 155 0.0 1.0 0.00 0.00 0.00 97 1017.9
20260901030504 73 154 0.0 1.0 0.00 0.00 0.00 97 1017.9
20260901030004 73 158 0.0 0.0 0.00 0.00 0.00 97 1017.9
20260901025504 73 158 0.0 1.0 0.00 0.00 0.00 97 1017.9
20260901025004 73 158 0.0 1.0 0.00 0.00 0.00 97 1017.9
20260901024504 73 248 0.0 1.0 0.00 0.00 0.00 97 1018.0
20260901024004 73 248 0.0 0.0 0.00 0.00 0.00 97 1018.2
20260901023504 73 248 0.0 0.0 0.00 0.00 0.00 97 1018.2
20260901023004 73 249 0.0 1.0 0.00 0.00 0.00 96 1018.2
20260901022504 74 249 0.0 1.0 0.00 0.00 0.00 96 1018.3
20260901022005 74 133 0.0 0.0 0.00 0.00 0.00 96 1018.3
20260901021504 74 133 0.0 0.0 0.00 0.00 0.00 96 1018.4
20260901021004 74 144 0.0 0.0 0.00 0.00 0.00 96 1018.4
20260901020505 74 167 0.0 0.0 0.00 0.00 0.00 96 1018.5
20260901020004 74 168 0.0 0.0 0.00 0.00 0.00 96 1018.6
20260901015504 74 168 0.0 0.0 0.00 0.00 0.00 96 1018.6
20260901015004 74 168 0.0 0.0 0.00 0.00 0.00 96 1018.6
20260901014004 74 168 0.0 0.0 0.00 0.00 0.00 96 1018.7
20260901013004 74 169 0.0 0.0 0.00 0.00 0.00 96 1018.6
20260901012504 74 169 0.0 0.0 0.00 0.00 0.00 96 1018.6
20260901012005 74 169 0.0 0.0 0.00 0.00 0.00 96 1018.6
20260901011504 74 169 0.0 0.0 0.00 0.00 0.00 96 1018.6
20260901011004 74 169 0.0 0.0 0.00 0.00 0.00 96 1018.5
20260901010505 74 169 0.0 0.0 0.00 0.00 0.00 96 1018.5
20260901005504 74 169 0.0 1.0 0.00 0.00 0.00 95 1018.3
20260901005005 75 126 0.0 1.0 0.00 0.00 0.00 95 1018.4
20260901004504 74 131 0.0 1.0 0.00 0.00 0.00 95 1018.4
20260901004005 75 131 0.0 1.0 0.00 0.00 0.00 95 1018.3
20260901003003 75 132 0.0 1.0 0.00 0.00 0.00 95 1018.2
20260901002505 75 132 0.0 1.0 0.00 0.00 0.00 95 1018.2
20260901002004 75 132 0.0 1.0 0.00 0.00 0.00 95 1018.2
20260901001505 75 132 0.0 1.0 0.00 0.00 0.00 94 1018.2
20260901001004 75 116 0.0 0.0 0.00 0.00 0.00 94 1018.2
20260901000004 76 115 0.0 0.0 0.00 0.00 0.00 94 1018.2
20260831235504 76 115 0.0 0.0 0.00 0.00 0.00 94 1018.2
20260831235004 76 116 0.0 1.0 0.00 0.00 0.00 94 1018.3
20260831234504 76 117 0.0 1.0 0.00 0.00 0.00 94 1018.3
20260831234005 76 117 0.0 1.0 0.00 0.00 0.00 94 1018.4
20260831233504 76 117 0.0 1.0 0.00 0.00 0.00 93 1018.5
20260831233004 76 166 0.0 1.0 0.00 0.00 0.00 93 1018.4
20260831232504 76 131 0.0 1.0 0.00 0.00 0.00 93 1018.5
20260831232004 76 125 0.0 2.0 0.00 0.00 0.00 93 1018.5
20260831231504 76 141 0.0 2.0 0.00 0.00 0.00 93 1018.5
20260831231004 76 106 0.0 1.0 0.00 0.00 0.00 93 1018.5
20260831230503 77 106 0.0 3.0 0.00 0.00 0.00 93 1018.5
20260831225503 77 127 0.0 1.0 0.00 0.00 0.00 92 1018.7
20260831225004 77 138 0.0 2.0 0.00 0.00 0.00 92 1018.7
20260831224504 77 122 0.0 3.0 0.00 0.00 0.00 92 1018.6
20260831224003 77 127 1.0 3.0 0.00 0.00 0.00 91 1018.7
20260831223504 77 135 1.0 3.0 0.00 0.00 0.00 92 1018.7
20260831223004 77 144 1.0 3.0 0.00 0.00 0.00 91 1018.9
20260831222504 77 127 2.0 3.0 0.00 0.00 0.00 91 1018.9
20260831222004 77 143 1.0 3.0 0.00 0.00 0.00 91 1019.0
20260831221504 78 129 1.0 3.0 0.00 0.00 0.00 91 1019.0
20260831221004 78 92 0.0 3.0 0.00 0.00 0.00 91 1019.0
20260831220505 77 142 2.0 3.0 0.00 0.00 0.00 90 1019.2
20260831220004 78 139 1.0 3.0 0.00 0.00 0.00 90 1019.2
20260831215504 78 125 1.0 3.0 0.00 0.00 0.00 90 1019.2
20260831215004 78 120 1.0 3.0 0.00 0.00 0.00 89 1019.2
20260831214504 78 84 0.0 3.0 0.00 0.00 0.00 90 1019.3
20260831214004 78 128 1.0 3.0 0.00 0.00 0.00 89 1019.2
20260831213504 78 119 2.0 3.0 0.00 0.00 0.00 89 1019.2
20260831213005 79 144 0.0 3.0 0.00 0.00 0.00 88 1019.1
20260831212504 79 117 0.0 3.0 0.00 0.00 0.00 88 1019.1
20260831212004 79 110 1.0 6.0 0.00 0.00 0.00 87 1019.0
20260831211504 80 151 1.0 10.0 0.00 0.00 0.00 87 1018.9
20260831211005 80 132 5.0 10.0 0.00 0.00 0.00 86 1018.8
20260831210004 81 145 2.0 9.0 0.00 0.00 0.00 86 1018.9
20260831205503 81 127 1.0 9.0 0.00 0.00 0.00 86 1018.9
20260831205004 81 110 2.0 5.0 0.00 0.00 0.00 86 1018.9
20260831204503 81 139 2.0 5.0 0.00 0.00 0.00 85 1018.9
20260831204004 82 96 1.0 5.0 0.00 0.00 0.00 85 1018.8
20260831203503 82 116 1.0 7.0 0.00 0.00 0.00 86 1018.6
20260831202004 82 145 2.0 6.0 0.00 0.00 0.00 85 1018.4
20260831201504 82 124 2.0 6.0 0.00 0.00 0.00 85 1018.4
20260831201005 82 74 2.0 6.0 0.00 0.00 0.00 86 1018.4
20260831200004 82 144 2.0 6.0 0.00 0.00 0.00 85 1018.4
20260831195504 82 86 1.0 6.0 0.00 0.00 0.00 86 1018.5
20260831195004 82 67 0.0 6.0 0.00 0.00 0.00 86 1018.5
20260831194504 82 123 1.0 6.0 0.00 0.00 0.00 86 1018.5
20260831194004 82 55 2.0 6.0 0.00 0.00 0.00 85 1018.5
20260831193504 83 68 1.0 5.0 0.00 0.00 0.00 85 1018.5
20260831192004 83 31 2.0 6.0 0.00 0.00 0.00 86 1018.4
20260831191504 82 117 1.0 6.0 0.00 0.00 0.00 86 1018.5
20260831191004 82 55 3.0 7.0 0.00 0.00 0.00 86 1018.6
20260831190504 83 31 2.0 8.0 0.00 0.00 0.00 85 1018.7
20260831190004 84 123 3.0 8.0 0.00 0.00 0.00 84 1018.7
20260831185504 84 19 1.0 3.0 0.00 0.00 0.00 85 1018.6
20260831185004 84 44 1.0 5.0 0.00 0.00 0.00 85 1018.6
20260831184004 84 51 1.0 5.0 0.00 0.00 0.00 83 1018.6
20260831183505 85 84 0.0 3.0 0.00 0.00 0.00 82 1018.7
20260831183004 85 89 0.0 3.0 0.00 0.00 0.00 82 1018.8
20260831182504 85 63 1.0 3.0 0.00 0.00 0.00 81 1018.7
20260831182004 85 50 1.0 5.0 0.00 0.00 0.00 80 1018.7
20260831180504 85 42 2.0 3.0 0.00 0.00 0.00 81 1018.7
20260831180005 85 90 1.0 3.0 0.00 0.00 0.00 81 1018.8
20260831175504 84 89 0.0 5.0 0.00 0.00 0.00 82 1018.7
20260831175004 85 111 2.0 5.0 0.00 0.00 0.00 81 1018.8
20260831174504 84 113 0.0 3.0 0.00 0.00 0.00 80 1018.8
20260831174004 85 132 0.0 5.0 0.00 0.00 0.00 80 1018.7
20260831173005 84 133 1.0 5.0 0.00 0.00 0.00 80 1018.8
20260831172004 84 71 1.0 3.0 0.00 0.00 0.00 80 1018.9
20260831171504 84 63 0.0 3.0 0.00 0.00 0.00 81 1018.9
20260831171004 84 63 1.0 5.0 0.00 0.00 0.00 81 1019.0
20260831170504 84 68 2.0 5.0 0.00 0.00 0.00 80 1019.0
20260831170004 84 58 1.0 3.0 0.00 0.00 0.00 80 1019.0
20260831164505 85 159 2.0 5.0 0.00 0.00 0.00 78 1019.1
20260831164004 85 128 1.0 3.0 0.00 0.00 0.00 80 1019.1
20260831163503 85 56 1.0 5.0 0.00 0.00 0.00 80 1019.1
20260831162504 84 86 1.0 5.0 0.00 0.00 0.00 80 1019.4
20260831161504 84 80 1.0 5.0 0.00 0.00 0.00 80 1019.4
20260831161004 83 141 2.0 5.0 0.00 0.00 0.00 79 1019.4
20260831160504 84 94 0.0 3.0 0.00 0.00 0.00 80 1019.4
20260831155504 83 102 2.0 3.0 0.00 0.00 0.00 80 1019.5
20260831155004 83 49 1.0 3.0 0.00 0.00 0.00 80 1019.5
20260831154504 83 150 2.0 5.0 0.00 0.00 0.00 79 1019.5
20260831154005 83 124 1.0 7.0 0.00 0.00 0.00 80 1019.6
20260831152504 82 110 2.0 6.0 0.00 0.00 0.00 81 1019.6
20260831152003 82 33 1.0 5.0 0.00 0.00 0.00 83 1019.5
20260831151004 81 69 0.0 3.0 0.00 0.00 0.00 85 1019.6
20260831150503 81 121 1.0 3.0 0.00 0.00 0.00 85 1019.6
20260831145503 82 77 0.0 5.0 0.00 0.00 0.00 84 1019.5
20260831145004 82 64 2.0 5.0 0.00 0.00 0.00 85 1019.5
20260831144504 82 17 2.0 5.0 0.00 0.00 0.00 84 1019.5
20260831144004 82 131 2.0 5.0 0.00 0.00 0.00 84 1019.4
20260831143504 81 75 0.0 9.0 0.00 0.00 0.00 85 1019.5
20260831142504 82 121 0.0 6.0 0.00 0.00 0.00 86 1019.4
20260831142005 81 100 1.0 6.0 0.00 0.00 0.00 86 1019.4
20260831141504 81 154 2.0 6.0 0.00 0.00 0.00 86 1019.5
20260831141004 81 126 2.0 6.0 0.00 0.00 0.00 88 1019.6
20260831140504 80 92 1.0 5.0 0.00 0.00 0.00 89 1019.5
20260831140003 80 61 1.0 3.0 0.00 0.00 0.00 91 1019.5
20260831135504 79 40 2.0 3.0 0.00 0.00 0.00 93 1019.5
20260831135004 78 34 1.0 3.0 0.00 0.00 0.00 93 1019.6
20260831134504 78 39 1.0 5.0 0.00 0.00 0.00 93 1019.7
20260831134004 78 68 1.0 5.0 0.00 0.00 0.00 94 1019.7
20260831133504 78 65 0.0 5.0 0.00 0.00 0.00 95 1019.7
20260831133004 78 85 1.0 5.0 0.00 0.00 0.00 95 1019.6
20260831132503 78 94 1.0 2.0 0.00 0.00 0.00 97 1019.6
20260831132004 77 56 0.0 3.0 0.00 0.00 0.00 97 1019.5
20260831131504 77 94 0.0 3.0 0.00 0.00 0.00 98 1019.5
20260831131004 77 123 0.0 1.0 0.00 0.00 0.00 98 1019.7
20260831130504 76 106 0.0 1.0 0.00 0.00 0.00 98 1019.7
20260831130004 76 128 0.0 1.0 0.00 0.00 0.00 98 1019.7
20260831125504 76 39 0.0 2.0 0.00 0.00 0.00 98 1019.7
20260831125004 75 40 1.0 2.0 0.00 0.00 0.00 98 1019.6
20260831124504 75 18 0.0 2.0 0.00 0.00 0.00 98 1019.5
20260831124004 75 19 0.0 1.0 0.00 0.00 0.00 98 1019.6
20260831123503 74 18 0.0 1.0 0.00 0.00 0.00 98 1019.6
20260831123003 74 20 0.0 1.0 0.00 0.00 0.00 98 1019.5
20260831121504 74 19 0.0 1.0 0.00 0.00 0.00 98 1019.3
20260831121004 74 19 0.0 0.0 0.00 0.00 0.00 98 1019.2
20260831120504 73 19 0.0 0.0 0.00 0.00 0.00 98 1019.2
20260831120004 73 18 0.0 0.0 0.00 0.00 0.00 98 1019.2
20260831115505 73 16 0.0 0.0 0.00 0.00 0.00 98 1019.3
20260831115004 73 16 0.0 0.0 0.00 0.00 0.00 98 1019.3
20260831114504 73 16 0.0 0.0 0.00 0.00 0.00 98 1019.4
20260831113504 73 16 0.0 2.0 0.00 0.00 0.00 98 1019.4
20260831113004 73 15 1.0 2.0 0.00 0.00 0.00 98 1019.4
20260831112505 72 38 0.0 1.0 0.00 0.00 0.00 98 1019.4
20260831112004 72 38 0.0 1.0 0.00 0.00 0.00 98 1019.3
20260831111005 72 37 0.0 0.0 0.00 0.00 0.00 98 1019.2
20260831110504 72 38 0.0 0.0 0.00 0.00 0.00 98 1019.1
20260831110004 71 37 0.0 0.0 0.00 0.00 0.00 98 1019.1
20260831105504 71 37 0.0 0.0 0.00 0.00 0.00 98 1018.9
20260831105003 71 37 0.0 0.0 0.00 0.00 0.00 98 1018.9
20260831104504 71 37 0.0 0.0 0.00 0.00 0.00 98 1018.9
20260831104004 71 37 0.0 0.0 0.00 0.00 0.00 98 1018.8
20260831103504 71 37 0.0 0.0 0.00 0.00 0.00 98 1018.8